This is the latest recevied weather packets stored in our database for station/object KE4AMH. If no packets are shown the sender has not sent any weather packets the latest 10 day(s).
| Time | Temp. | Humidity | Pressure | Rain* | Wind** | Luminosity | Snow |
|---|---|---|---|---|---|---|---|
| 1777982014 | 11.11° C | 87% | 1016.4 hPa | 0 mm | - | 35 W/m² | - |
| 1777981712 | 10.56° C | 87% | 1016 hPa | 0 mm | - | 28 W/m² | - |
| 1777981409 | 10° C | 88% | 1016 hPa | 0 mm | - | 24 W/m² | - |
| 1777981105 | 10° C | 89% | 1015.9 hPa | 0 mm | - | 22 W/m² | - |
| 1777980802 | 10° C | 89% | 1015.8 hPa | 0 mm | - | 20 W/m² | - |
| 1777980497 | 9.44° C | 91% | 1015.4 hPa | 0 mm | - | 17 W/m² | - |
| 1777980195 | 8.89° C | 91% | 1015.6 hPa | 0 mm | - | 17 W/m² | - |
| 1777979890 | 8.89° C | 91% | 1015.5 hPa | 0 mm | - | 15 W/m² | - |
| 1777979586 | 8.89° C | 91% | 1015.5 hPa | 0 mm | - | 12 W/m² | - |
| 1777979282 | 8.89° C | 91% | 1015.6 hPa | 0 mm | - | 11 W/m² | - |
| 1777978980 | 8.89° C | 90% | 1015.3 hPa | 0 mm | - | 9 W/m² | - |
| 1777978676 | 9.44° C | 89% | 1015.7 hPa | 0 mm | - | 6 W/m² | - |
| 1777978372 | 9.44° C | 87% | 1015.8 hPa | 0 mm | - | 4 W/m² | - |
| 1777978069 | 9.44° C | 87% | 1015.6 hPa | 0 mm | - | 0 W/m² | - |
| 1777977766 | 9.44° C | 86% | 1015.7 hPa | 0 mm | - | 1 W/m² | - |
| 1777977462 | 10° C | 85% | 1015.4 hPa | 0 mm | - | 0 W/m² | - |
| 1777977160 | 10° C | 84% | 1015.5 hPa | 0 mm | - | 0 W/m² | - |
| 1777976857 | 10.56° C | 83% | 1015.6 hPa | 0 mm | - | 0 W/m² | - |
| 1777976555 | 10.56° C | 82% | 1015.4 hPa | 0 mm | - | 0 W/m² | - |
| 1777976254 | 10.56° C | 81% | 1015.2 hPa | 0 mm | - | 0 W/m² | - |
| 1777975950 | 11.11° C | 78% | 1015.2 hPa | 0 mm | - | 0 W/m² | - |
| 1777975647 | 11.67° C | 77% | 1015.3 hPa | 0 mm | - | 0 W/m² | - |
| 1777975343 | 11.67° C | 76% | 1015.2 hPa | 0 mm | - | 0 W/m² | - |
| 1777975038 | 11.67° C | 77% | 1015.3 hPa | 0 mm | - | 0 W/m² | - |
| 1777974737 | 11.67° C | 76% | 1015.4 hPa | 0 mm | - | 0 W/m² | - |
* Rain latest hour (hover to see other rain measurements)
** Current wind speed in m/s (hover to see current wind gust speed)